Location: Aydie
(43.5695°N, 0.1043°W)
Time: 05:10:42
(UTC+00:00)

BlueWalker 3 - Pass Details

Date: 17 November 2025
Orbit: 455 x 462 km, 53.2° (Epoch: 03 December)

Event Time Altitude Azimuth Distance (km) Brightness Sun altitude
Rises 18:43:27 0° 214° (SW) 2,475 6.0 -23.4°
Reaches altitude 10° 18:45:39 10° 207° (SSW) 1,606 4.9 -23.8°
Enters shadow 18:47:06 21° 194° (SSW) 1,086 3.8 -24.1°
